TIME,DELAY(SENSOR),PRES,T(CTD),SAL,OXYGEN,RAWTEMP,T(OPTODE),TCPHASE,FLUOR,BETA(BETA700),BETA(BETA412),BETA(BETA440),CDOM,C(CSC),ED(ED411.90),ED(ED443.80),ED(ED489.40),ED(ED554.70),LU(LU412.20),LU(LU443.80),LU(LU489.40),LU(LU555.00),COMP,TILTX,TILTX(TILTY),CHECK
1348932028,5802,496.9299926757812500,17.3516998291015620,36.4361000061035160,230.4725036621093800,191.2006072998047000,17.3493595123291000,32.0179214477539060,49,106,84,81,65,12691,2147487698,2147764187,2147559268,2147796626,2147314770,2147475529,2147708699,2148244525,1110,7,13,22984
1348932149,5803,485.7699890136719000,17.4354000091552730,36.4524002075195300,230.7528991699218800,188.4228057861328000,17.4338798522949220,31.9662895202636720,50,107,83,83,64,12689,2147486326,2147762029,2147557632,2147795574,2147308324,2147479387,2147711296,2148244269,975,7,13,9543
1348932259,5803,475.6900024414062500,17.5272006988525400,36.4724006652832000,232.4243011474609400,185.6240997314453000,17.5190296173095700,31.8458003997802730,50,106,84,83,64,12694,2147483062,2147762806,2147559369,2147797275,2147309677,2147480557,2147709997,2148244992,967,7,13,49122
1348932382,5806,464.6300048828125000,17.6061992645263670,36.4861984252929700,233.9839019775390600,182.6195068359375000,17.6104698181152340,31.7287406921386720,50,106,83,82,65,12693,2147483584,2147767789,2147560109,2147794285,2147308598,2147476617,2147707062,2148242989,1483,7,13,28308
1348932503,5803,453.7099914550781000,17.6779994964599600,36.4991989135742200,234.1701965332031200,180.2666015625000000,17.6820793151855470,31.6880207061767580,49,106,83,83,64,12698,2147486683,2147760365,2147557952,2147792585,2147312256,2147475264,2147709138,2148243364,2021,7,13,25073
1348932637,5803,441.8699951171875000,17.7604999542236330,36.5140991210937500,235.3630065917968800,177.7550964355468800,17.7585201263427730,31.5962295532226560,50,106,83,82,64,12699,2147486976,2147764406,2147555712,2147793718,2147315163,2147477312,2147707830,2148243062,2028,7,13,46746
1348932758,5803,431.2699890136719000,17.8318004608154300,36.5270996093750000,236.1631927490234400,175.4152984619140600,17.8297500610351560,31.5262393951416000,50,107,83,82,64,12701,2147489417,2147765842,2147557366,2147793362,2147310555,2147477339,2147706806,2148243785,2296,7,13,56581
1348932879,5805,420.6799926757812500,17.9081993103027340,36.5401000976562500,236.9154052734375000,172.9620971679687500,17.9044399261474600,31.4571094512939450,50,106,82,83,64,12704,2147487451,2147761499,2147558464,2147792594,2147313142,2147478985,2147707035,2148243986,2435,7,13,26378
1348933013,5802,409.0199890136719000,17.9564990997314450,36.5467987060546900,236.7415924072265600,171.3668060302734400,17.9530105590820300,31.4439105987548830,50,107,84,82,63,12709,2147486857,2147764672,2147555840,2147793618,2147305353,2147479040,2147707492,2148243273,1516,7,13,23682
1348933134,5804,398.3699951171875000,18.0088996887207030,36.5549011230468750,237.1714935302734400,169.6880035400390600,18.0041294097900400,31.4008293151855470,50,107,83,83,63,12709,2147489380,2147766454,2147555008,2147794139,2147305984,2147476854,2147705746,2148244086,1404,7,13,43295
1348933257,5804,387.3999938964844000,18.0473003387451170,36.5605010986328100,237.0740966796875000,168.3874969482422000,18.0437297821044920,31.3881702423095700,50,107,83,83,65,12713,2147486948,2147763136,2147558436,2147793179,2147307986,2147477357,2147709449,2148241225,1812,7,12,59946
1348933378,5804,376.7000122070312500,18.0790004730224600,36.5623016357421900,235.6891021728515600,167.2783966064453000,18.0775108337402340,31.4393596649169920,50,109,81,82,65,12714,2147489389,2147763117,2147558555,2147791314,2147308635,2147477449,2147706185,2148241792,2518,7,13,49292
1348933510,5801,365.1700134277344000,18.1298999786376950,36.5690994262695300,235.3699035644531200,165.6439056396484400,18.1272907257080080,31.4326705932617200,50,107,83,83,64,12716,2147489152,2147762395,2147559012,2147791963,2147308251,2147477805,2147707136,2148241709,2869,7,12,3640
1348933633,5803,354.5899963378906000,18.1765995025634770,36.5763015747070300,235.6331024169922000,164.0590972900390600,18.1755695343017580,31.3986606597900400,50,108,83,83,65,12715,2147490496,2147764717,2147559625,2147792932,2147310848,2147480292,2147702985,2148237174,3462,7,13,51922
1348933765,5804,343.3900146484375000,18.2327995300292970,36.5808982849121100,235.2048034667968800,162.3143005371093800,18.2287101745605470,31.3958702087402340,49,106,83,83,64,12718,2147486299,2147765293,2147557723,2147793316,2147304448,2147475648,2147703981,2148241216,404,7,13,62027
1348933899,5805,332.1400146484375000,18.2971992492675780,36.5872001647949200,233.6694946289062500,160.1450042724609400,18.2947998046875000,31.4406604766845700,50,107,84,83,65,12719,2147490075,2147764406,2147560850,2147792091,2147303012,2147477019,2147702930,2148240950,1154,7,12,24682
1348934031,5804,321.2600097656250000,18.3535995483398440,36.5931015014648440,233.2395019531250000,158.3141937255859400,18.3505897521972660,31.4370803833007800,49,108,81,84,65,12722,2147492132,2147764342,2147559908,2147796068,2147307666,2147479872,2147706240,2148239414,900,7,12,15134
1348934163,5804,310.5299987792969000,18.4034996032714840,36.5956001281738300,232.3583984375000000,156.6054992675781200,18.4026508331298830,31.4569091796875000,50,109,83,83,65,12722,2147493504,2147765211,2147562742,2147789293,2147305334,2147480566,2147705362,2148240292,842,7,13,53476
1348934297,5803,299.9500122070312500,18.4829006195068360,36.6021003723144500,231.0590057373047000,154.0301971435547000,18.4811401367187500,31.4854393005371100,50,107,82,84,63,12726,2147490669,2147765668,2147563136,2147791049,2147300461,2147482788,2147703908,2148243446,337,7,12,47772
1348934451,5805,288.3500061035156000,18.5806999206542970,36.6081008911132800,229.5205993652343800,150.8343963623047000,18.5785503387451170,31.5182399749755860,50,107,82,84,64,12727,2147491099,2147772251,2147566592,2147790226,2147310153,2147476379,2147711634,2148239085,459,7,12,49789
1348934585,5804,277.1099853515625000,18.7091999053955080,36.6123008728027340,228.4971008300781200,146.6082000732422000,18.7074108123779300,31.5119209289550780,50,107,83,82,66,12732,2147491858,2147764772,2147572681,2147790637,2147305572,2147479808,2147709504,2148239222,917,7,13,31156
1348934695,5803,266.3500061035156000,18.8264999389648440,36.6171989440918000,227.4859924316406200,142.4552001953125000,18.8340606689453120,31.5066108703613280,50,108,82,84,65,12736,2147493339,2147768630,2147577865,2147791030,2147304146,2147486052,2147715904,2148242203,610,7,12,58581
1348934816,5804,254.5500030517578000,18.8693008422851560,36.5898017883300800,232.7236938476562500,140.7691040039062500,18.8854999542236330,31.2275199890136720,50,106,82,84,64,12740,2147493641,2147774390,2147586834,2147789961,2147303405,2147488347,2147722404,2148240457,1129,7,13,7523
1348934928,5803,243.5700073242187500,19.0216999053955080,36.5943984985351560,234.4151000976562500,136.0914001464843800,19.0282192230224600,31.0838508605957030,50,106,82,84,64,12743,2147496201,2147778404,2147598326,2147792832,2147303798,2147488301,2147730432,2148241782,1633,7,12,96
1348935038,5801,232.9799957275390600,19.0797004699707030,36.5816993713378900,239.7523040771484400,134.4884033203125000,19.0771503448486330,30.8109607696533200,50,106,83,83,64,12746,2147495643,2147790546,2147615780,2147790848,2147312731,2147498130,2147742180,2148239881,1886,7,12,22230
1348935148,5805,222.3000030517578000,19.1611003875732420,36.5830993652343750,243.6461029052734400,131.8654937744140600,19.1572093963623050,30.5970897674560550,49,105,82,83,62,12745,2147496000,2147801993,2147642258,2147789851,2147310272,2147504923,2147754349,2148243446,1545,7,13,36352
1348935260,5802,211.3699951171875000,19.2297000885009770,36.5830001831054700,246.0832977294922000,129.6186981201172000,19.2258090972900400,30.4574203491210940,49,107,82,83,62,12746,2147500937,2147816466,2147679213,2147788662,2147305124,2147517778,2147773897,2148244022,2509,7,12,41923
1348935381,5800,199.6000061035156200,19.2735996246337900,36.5782012939453100,247.9913024902343800,128.1506042480468800,19.2706298828125000,30.3524208068847660,50,106,82,83,65,12745,2147505124,2147841307,2147734683,2147792758,2147323520,2147536640,2147807561,2148245449,3286,7,12,18112
1348935436,5805,194.3200073242187500,19.2910003662109380,36.5788002014160160,248.8834991455078000,127.4602966308593800,19.2917098999023440,30.3038005828857420,50,105,82,82,62,12746,2147508571,2147861202,2147767268,2147789942,2147319305,2147545563,2147828306,2148247917,3567,7,12,17536
1348935491,5805,189.0599975585937500,19.3187007904052730,36.5769996643066400,249.4532928466797000,126.6120986938476600,19.3176193237304700,30.2675895690917970,50,107,81,83,62,12748,2147517622,2147879597,2147799222,2147792018,2147323428,2147561609,2147849728,2148246829,301,7,12,49011
1348935566,5804,182.3500061035156200,19.3717002868652340,36.5768013000488300,249.9387969970703000,124.8881988525390600,19.3702793121337900,30.2234592437744140,50,107,83,83,63,12746,2147518025,2147912868,2147856777,2147788013,2147323510,2147582198,2147884297,2148249600,497,7,12,27779
1348935621,5803,177.8300018310547000,19.3952999114990230,36.5786018371582000,249.9138031005859400,124.1139984130859400,19.3939208984375000,30.2147006988525400,50,106,82,84,62,12741,2147525568,2147933357,2147905051,2147790208,2147331163,2147599734,2147908937,2148252379,416,7,12,41365
1348935676,5802,173.4600067138672000,19.4179992675781250,36.5796012878418000,250.1775054931640600,123.3957977294921900,19.4158592224121100,30.1936893463134770,50,108,82,83,62,12748,2147534829,2147968082,2147962102,2147790381,2147336384,2147620452,2147945865,2148251346,3498,7,12,57894
1348935731,5751,169.1799926757812500,19.4409999847412100,36.5797996520996100,250.2456970214843800,122.6382980346679700,19.4390106201171880,30.1808395385742200,51,107,82,84,63,12747,2147545453,2148001910,2148030390,2147790747,2147335808,2147640219,2147982116,2148257298,25,7,12,49579
1348935785,5805,165.0800018310547000,19.4668006896972660,36.5802993774414060,250.3833007812500000,121.7987976074218800,19.4646606445312500,30.1638393402099600,51,109,83,83,62,12746,2147559049,2148047030,2148109101,2147787291,2147343241,2147667044,2148032228,2148259200,195,7,12,5928
1348935840,5803,161.0800018310547000,19.5291996002197270,36.5857009887695300,249.6988067626953000,119.7213973999023400,19.5281391143798830,30.1672096252441400,53,111,82,84,61,12742,2147578496,2148101760,2148206418,2147790080,2147345417,2147704054,2148084644,2148263213,604,7,12,34024
1348935917,5804,156.1900024414062500,19.5891990661621100,36.5919990539550800,249.1325988769531200,117.8675994873046900,19.5847892761230470,30.1681098937988280,56,114,82,84,62,12741,2147606409,2148186980,2148358528,2147790528,2147366089,2147757659,2148164964,2148269202,1050,7,12,33995
1348935994,5802,152.2200012207031200,19.6417007446289060,36.5960998535156250,249.4532928466797000,116.1742019653320300,19.6365604400634770,30.1321296691894530,57,113,83,84,62,12740,2147643611,2148276278,2148510729,2147790628,2147374153,2147812562,2148245321,2148275227,986,7,13,57609
1348936071,5803,148.3500061035156200,19.7220993041992200,36.6071014404296900,248.9561004638672000,113.9430999755859400,19.7047691345214840,30.1252193450927730,60,112,84,85,63,12737,2147684717,2148379126,2148669805,2147791835,2147393892,2147861376,2148327158,2148279177,903,7,12,31031
1348936148,5804,144.4199981689453000,19.7649002075195300,36.6059989929199200,250.2516937255859400,112.1569976806640600,19.7593898773193360,30.0448894500732420,60,111,82,84,63,12731,2147733970,2148480320,2148823131,2147792073,2147409654,2147916196,2148403538,2148286162,875,7,13,7498
1348936227,5804,140.0599975585937500,19.8143997192382800,36.6128997802734400,250.5090026855468800,110.5345001220703100,19.8090095520019530,30.0126800537109380,62,115,83,85,64,12729,2147804589,2148642797,2149065910,2147794386,2147441270,2148004132,2148530038,2148293229,879,7,12,16609
1348936293,5804,136.2799987792968800,19.8777999877929700,36.6178016662597660,250.8099060058593800,108.5045013427734400,19.8711109161376950,29.9733104705810550,68,113,82,84,63,12727,2147878884,2148806308,2149309869,2147799405,2147469257,2148078116,2148647515,2148301257,1044,7,12,50410
1348936359,5803,132.5299987792968800,19.9053001403808600,36.6040000915527340,252.8338012695312500,107.6555023193359400,19.8970794677734380,29.8743591308593750,82,116,84,85,64,12719,2147977490,2149002057,2149585307,2147799808,2147513572,2148163876,2148766454,2148309056,1166,6,12,9975
1348936436,5801,128.2700042724609400,20.0049991607666000,36.6039009094238300,260.8536987304687500,104.4054031372070300,19.9965400695800780,29.4913902282714840,82,125,85,84,63,12710,2148169078,2149375085,2150130459,2147803931,2147573485,2148317257,2148994880,2148331501,823,7,13,10216
1348936504,5803,124.6600036621093800,20.0841007232666000,36.6100997924804700,263.6763000488281000,101.7906036376953100,20.0765705108642580,29.3410396575927730,87,120,84,84,64,12708,2148291026,2149550491,2150314889,2147804608,2147610642,2148371318,2149050998,2148339730,475,7,12,57940
1348936592,5805,120.2799987792968800,20.2238006591796880,36.6245994567871100,265.6112060546875000,97.3773727416992200,20.2117099761962900,29.2059097290039060,86,120,83,85,64,12699,2148527689,2149939803,2150795611,2147812937,2147689060,2148521252,2149236589,2148353206,97,7,12,25920
1348936669,5805,116.8099975585937500,20.3062992095947270,36.6221008300781250,266.8790893554687500,94.7101669311523400,20.2934207916259770,29.1206703186035160,89,127,84,85,62,12695,2148777691,2150360512,2151312603,2147818541,2147784731,2148683803,2149436013,2148372132,472,7,13,54081
1348936768,5801,113.0000000000000000,20.5072994232177730,36.6515998840332000,268.5439147949219000,88.4653930664062500,20.4848098754882800,28.9747009277343750,90,120,84,85,63,12691,2149206912,2151073572,2152226752,2147831762,2147933805,2148970240,2149814985,2148403977,608,7,12,32980
1348937111,5806,109.0299987792968800,20.6394004821777340,36.6590995788574200,265.3996887207031000,83.9639205932617200,20.6228599548339840,29.0451393127441400,95,124,85,85,63,12687,2149602139,2151596973,2152765668,2147844269,2148079442,2149183204,2150035840,2148428278,399,7,13,4054
1348937230,5802,104.4599990844726600,20.8239002227783200,36.6478996276855500,264.3453063964844000,77.9273529052734400,20.8081092834472660,29.0121803283691400,91,123,84,87,62,12669,2150359497,2152636644,2153861997,2147859474,2148354267,2149592566,2150479689,2148471725,724,7,12,21092
1348937318,5803,100.9499969482421900,20.9797000885009770,36.6685981750488300,270.2567138671875000,72.3894882202148400,20.9781799316406250,28.7049293518066400,93,129,85,87,61,12657,2151072886,2153584722,2154831680,2147881600,2148628955,2149969398,2150878701,2148514797,848,6,12,22986
1348937373,5804,99.0199966430664000,21.1984004974365230,36.6803016662597660,271.3063964843750000,67.4239120483398400,21.1307697296142580,28.6015701293945300,97,127,83,87,62,12649,2151497106,2154150253,2155368804,2147894765,2148790994,2150206235,2151111387,2148540187,677,7,12,20769
1348937439,5802,97.1800003051757800,21.2775001525878900,36.6925010681152340,270.9065856933594000,65.0714263916015600,21.2031002044677730,28.5879993438720700,90,127,84,89,60,12654,2151977554,2154753344,2155949650,2147905024,2148976365,2150446674,2151362505,2148566427,526,7,12,52417
1348937517,5800,94.6500015258789000,21.4361000061035160,36.7102012634277340,271.8723144531250000,56.5289611816406250,21.4659404754638670,28.4440498352050780,87,129,84,88,61,12656,2152779008,2155760320,2156895497,2147929444,2149316187,2150898212,2151809106,2148614134,292,7,12,5525
1348937572,5801,92.1600036621093800,21.6152000427246100,36.7304000854492200,273.9389953613281000,52.3721008300781250,21.5939502716064450,28.3118190765380860,82,129,85,88,60,12650,2153539254,2156717165,2157799936,2147955062,2149681152,2151371346,2152270034,2148655771,3524,7,13,1484
1348937627,5807,89.8000030517578100,21.7010993957519530,36.7322998046875000,276.1404113769531000,49.1361694335937500,21.6936607360839840,28.1868991851806640,80,130,86,88,59,12659,2154394496,2157760896,2158799305,2147989805,2150110006,2151916352,2152785042,2148706267,9,7,12,16815
1348937682,5802,87.7099990844726600,21.8535995483398440,36.7347984313964840,277.3981933593750000,44.4571800231933600,21.8379192352294920,28.0811290740966800,80,130,85,88,60,12651,2155255890,2158798436,2159772626,2148020315,2150550646,2152472576,2153302336,2148757165,3484,7,13,35253
1348937737,5806,86.0800018310546900,21.9810009002685550,36.7356986999511700,277.9223022460937500,41.5242500305175800,21.9283905029296880,28.0250797271728500,79,132,86,89,59,12644,2156055204,2159767835,2160661284,2148044443,2150959158,2152999094,2153778779,2148801078,3497,7,12,52462
1348937826,5803,83.6299972534179700,22.1760005950927730,36.7414016723632800,277.5681152343750000,33.7559700012207000,22.1682300567626950,27.9436092376709000,75,131,86,88,59,12650,2157747702,2161767012,2162510272,2148114258,2151842560,2154105874,2154792182,2148897042,3357,7,12,36348
1348937881,5803,81.5999984741211000,22.3348007202148440,36.7467002868652340,278.1665954589844000,28.8142890930175780,22.3209590911865230,27.8603706359863280,73,132,86,89,59,12647,2159111305,2163324809,2163945344,2148174802,2152600649,2155037202,2155610834,2148974710,2298,7,13,9490
1348937936,5803,79.5999984741211000,22.4619007110595700,36.7494010925293000,279.0008850097656000,24.6434707641601560,22.4499492645263670,27.7780704498291000,73,131,85,89,58,12648,2160564544,2165003264,2165497408,2148229906,2153441901,2156065024,2156521554,2149064548,1744,7,12,9514
1348937991,5803,77.7099990844726600,22.5725994110107420,36.7527999877929700,280.7568054199219000,21.1514396667480470,22.5580291748046880,27.6693992614746100,75,130,86,90,58,12641,2162197458,2166861147,2167245979,2148319716,2154433334,2157235913,2157541257,2149163565,944,7,12,1512
1348938046,5803,75.9000015258789000,22.6921997070312500,36.7524986267089840,281.2962036132812500,17.9833602905273440,22.6561298370361330,27.6109199523925780,73,131,87,88,58,12642,2163756041,2168585910,2168811922,2148395830,2155390546,2158337243,2158453193,2149252745,426,8,12,24876
1348938101,5804,74.2500000000000000,22.8166007995605470,36.7532005310058600,281.5675048828125000,13.5535898208618160,22.7933902740478500,27.5471191406250000,71,132,87,90,57,12640,2164821504,2169652077,2169699401,2148458130,2156105536,2159105810,2159055881,2149316278,410,7,12,58147
1348938179,5800,71.8499984741211000,22.8698005676269530,36.7509994506835940,282.3416137695312500,11.1264600753784180,22.8686408996582030,27.4888305664062500,72,129,86,88,57,12641,2167651309,2172744896,2172485366,2148607030,2157891958,2161143350,2160754130,2149488009,3174,7,12,16405
1348938234,5804,69.6399993896484400,22.9200000762939450,36.7349014282226560,282.0228881835937500,9.6094512939453120,22.9156894683837900,27.4823303222656250,68,132,85,88,58,12641,2170096621,2175226560,2174606153,2148754294,2159473664,2162841142,2162100114,2149630665,2366,6,12,36350
1348938289,5803,67.6999969482421900,22.9596004486084000,36.7126007080078100,280.1758117675781000,8.3547334671020500,22.9546203613281250,27.5360298156738280,68,129,86,88,57,12642,2172690614,2177769755,2176732516,2148898669,2161059392,2164537444,2163446838,2149773833,1465,7,13,3214
1348938344,5805,66.1100006103515600,23.0827999114990230,36.7089004516601560,278.1419982910156000,3.9820969104766846,23.0903396606445300,27.5597095489501950,70,131,86,90,58,12637,2174859629,2179790656,2178327515,2149048274,2162412187,2165938624,2164498742,2149899483,1476,8,12,1063
1348938410,5804,64.3399963378906200,23.2845001220703120,36.7148017883300800,278.0227966308594000,-1.2737989425659180,23.2536201477050780,27.5005302429199220,68,132,86,88,58,12635,2177473801,2182341833,2180503689,2149209124,2164146880,2167794578,2165960877,2150051968,2005,7,12,52697
1348938488,5803,61.7099990844726560,23.6266002655029300,36.7300987243652340,279.3027038574219000,-10.7615900039672850,23.5487804412841800,27.3380603790283200,65,134,86,90,57,12635,2181861220,2186702738,2184422482,2149583414,2167462016,2171205376,2168647250,2150357869,1614,8,12,32435
1348938543,5803,59.5099983215332000,23.7875003814697270,36.6943016052246100,280.0068054199219000,-14.8749904632568360,23.6769199371337900,27.2622890472412100,64,134,87,90,57,12637,2184878299,2189656320,2187057234,2149880502,2170032411,2173780800,2170574710,2150578587,2174,8,12,44594
1348938598,5804,57.9900016784668000,24.0608997344970700,36.6629981994628900,278.5209045410156000,-25.1524105072021500,23.9975299835205080,27.1942596435546880,63,134,87,89,59,12628,2187032274,2191682486,2188843062,2150076918,2171835364,2175523190,2171846619,2150733056,2710,8,12,5132
1348938842,5803,56.3800010681152340,24.3248004913330080,36.6545982360839840,276.0512084960937500,-34.8635597229003900,24.3010902404785160,27.1704998016357420,63,134,86,91,57,12624,2190732598,2195558774,2192194093,2150388672,2175568932,2179144914,2174433280,2151016923,228,7,12,63987
1348939017,5803,52.6800003051757800,24.8516006469726560,36.6593017578125000,275.2579040527344000,-50.6100006103515600,24.7946701049804700,27.0119800567626950,63,132,85,91,59,12608,2197275108,2201498212,2197753526,2151221778,2181618514,2184947346,2178812516,2151576786,947,8,12,17426
1348939051,5804,52.0699996948242200,24.9123001098632800,36.6545982360839840,275.3250122070312500,-51.5383987426757800,24.8238201141357420,26.9982204437255860,62,135,87,89,57,12612,2197974235,2202227108,2198433398,2151295899,2182386368,2185709056,2179343890,2151641152,624,8,12,17369
1348939453,5804,50.7599983215332000,25.6184005737304700,36.5481986999511700,269.1037902832031000,-75.5802764892578100,25.5809898376464840,26.9476203918457030,62,134,86,89,56,12598,2203203108,2207512548,2203514066,2151943186,2188796608,2191832923,2183764187,2152118884,788,7,12,29239
1348939642,5805,48.9799995422363300,25.6319999694824220,36.5481986999511700,266.9361877441406000,-77.3649902343750000,25.6373691558837900,27.0099201202392580,62,138,86,91,57,12585,2206474194,2210874971,2206876854,2152495680,2192123556,2195130633,2186302957,2152456667,543,7,12,25495
1348939855,5805,46.9000015258789060,26.1518993377685550,36.5111999511718750,260.7311096191406000,-93.4538803100586000,26.1467494964599600,27.0606994628906250,62,133,87,88,56,12563,2212210852,2216482669,2212255625,2153410432,2198921654,2201474971,2190859931,2153038720,395,7,12,56850
1348940066,5805,44.7099990844726560,26.4484996795654300,36.4822998046875000,256.4896850585937500,-104.2219009399414000,26.4888401031494140,27.1012592315673830,63,140,86,90,57,12548,2220049106,2224277942,2219812352,2154887789,2207116982,2209203977,2196716096,2153871314,254,6,12,24477
1348940433,5804,42.6899986267089840,27.2262001037597660,36.4800987243652340,247.1103973388672000,-126.4451980590820300,27.1979694366455080,27.2192993164062500,62,133,86,91,58,12523,2226164827,2230139227,2225400685,2156125814,2215582829,2216788361,2201920201,2154569609,3238,8,12,65397
1348940550,5801,40.8800010681152340,27.2385997772216800,36.4714012145996100,244.7348022460937500,-128.0585021972656200,27.2496109008789060,27.2998008728027340,61,131,85,90,57,12517,2229872621,2233910464,2229321453,2157111936,2219620269,2220552429,2204815341,2155053869,3300,8,12,20419
1348940775,5806,38.7900009155273440,27.3199996948242200,36.3618011474609400,239.8863983154297000,-131.1473999023437500,27.3485698699951170,27.4700298309326170,59,134,83,88,56,12501,2231484754,2234865974,2230145069,2158146267,2226322971,2225419099,2207219062,2155518857,268,8,12,28328
1348940868,5804,36.9000015258789060,27.2593002319335940,36.3035011291503900,239.3688049316406200,-128.8955993652343800,27.2764205932617200,27.5199394226074220,60,128,85,92,57,12490,2233953353,2236746779,2232022902,2159257024,2230812315,2228766290,2209201389,2155979904,503,8,11,41931